This is the latest recevied weather packets stored in our database for station/object KM4KBD. If no packets are shown the sender has not sent any weather packets the latest 10 day(s).
| Time | Temp. | Humidity | Pressure | Rain* | Wind** | Luminosity | Snow |
|---|---|---|---|---|---|---|---|
| 1778025901 | 19.44° C | 69% | 1013.7 hPa | 0 mm | - | 15 W/m² | - |
| 1778025598 | 19.44° C | 68% | 1013.6 hPa | 0 mm | - | 16 W/m² | - |
| 1778025296 | 19.44° C | 68% | 1013.8 hPa | 0 mm | - | 14 W/m² | - |
| 1778024993 | 20° C | 65% | 1013.7 hPa | 0 mm | - | 15 W/m² | - |
| 1778024690 | 20° C | 64% | 1014 hPa | 0 mm | - | 13 W/m² | - |
| 1778024387 | 20.56° C | 64% | 1013.9 hPa | 0 mm | - | 16 W/m² | - |
| 1778024084 | 20.56° C | 63% | 1014.3 hPa | 0 mm | - | 12 W/m² | - |
| 1778023782 | 20.56° C | 63% | 1014.2 hPa | 0 mm | - | 15 W/m² | - |
| 1778023480 | 20.56° C | 63% | 1014.2 hPa | 0 mm | - | 23 W/m² | - |
| 1778023177 | 20.56° C | 64% | 1013.9 hPa | 0 mm | - | 30 W/m² | - |
| 1778022874 | 20.56° C | 63% | 1014.2 hPa | 0 mm | - | 33 W/m² | - |
| 1778022572 | 20.56° C | 66% | 1014.2 hPa | 0 mm | - | 64 W/m² | - |
| 1778022269 | 20.56° C | 65% | 1014.2 hPa | 0 mm | - | 66 W/m² | - |
| 1778021965 | 20.56° C | 65% | 1014.4 hPa | 0 mm | - | 52 W/m² | - |
| 1778021663 | 20.56° C | 66% | 1014.5 hPa | 0 mm | - | 45 W/m² | - |
| 1778021358 | 20.56° C | 64% | 1014.5 hPa | 0 mm | - | 62 W/m² | - |
| 1778021056 | 20.56° C | 64% | 1014.4 hPa | 0 mm | - | 69 W/m² | - |
| 1778020752 | 20.56° C | 63% | 1014.6 hPa | 0 mm | - | 53 W/m² | - |
| 1778020450 | 20.56° C | 63% | 1014.6 hPa | 0 mm | - | 46 W/m² | - |
| 1778020146 | 20.56° C | 63% | 1014.6 hPa | 0 mm | - | 55 W/m² | - |
| 1778019842 | 20.56° C | 63% | 1015 hPa | 0 mm | - | 62 W/m² | - |
| 1778019539 | 20.56° C | 62% | 1015.1 hPa | 0 mm | - | 96 W/m² | - |
| 1778019235 | 20.56° C | 62% | 1015.1 hPa | 0 mm | - | 56 W/m² | - |
| 1778018933 | 20.56° C | 62% | 1015.1 hPa | 0 mm | - | 69 W/m² | - |
| 1778018630 | 20.56° C | 60% | 1015.2 hPa | 0 mm | - | 63 W/m² | - |
* Rain latest hour (hover to see other rain measurements)
** Current wind speed in m/s (hover to see current wind gust speed)